Location: Follega
(52.8850°N, 5.7362°E)
Time: 00:19:47
(UTC+00:00)

ERS-1 Rocket - Pass Details

Date: 04 October 2020
Orbit: 753 x 757 km, 98.5° (Epoch: 24 October)

Event Time Altitude Azimuth Distance (km) Brightness Sun altitude
Exits shadow 21:58:05 21° 317° (NW) 1,668 5.2 -38.7°
Drops below altitude 10° 21:59:59 10° 331° (NNW) 2,299 6.2 -38.8°
Sets 22:02:28 0° 340° (NNW) 3,229 7.1 -39.0°
